TimeEDT,TemperatureF,Dew PointF,Humidity,Sea Level PressureIn,VisibilityMPH,Wind Direction,Wind SpeedMPH,Gust SpeedMPH,PrecipitationIn,Events,Conditions,WindDirDegrees,DateUTC
12:15 AM,62.6,51.8,68,30.29,10.0,ENE,8.1,-,N/A,,Overcast,60,2013-10-13 04:15:00
12:35 AM,62.6,51.8,68,30.29,10.0,NE,8.1,-,N/A,,Overcast,50,2013-10-13 04:35:00
12:55 AM,62.6,51.8,68,30.29,10.0,ENE,5.8,16.1,N/A,,Overcast,60,2013-10-13 04:55:00
1:15 AM,62.6,51.8,68,30.29,10.0,ENE,5.8,-,N/A,,Overcast,60,2013-10-13 05:15:00
1:35 AM,60.8,51.8,72,30.30,10.0,NE,9.2,-,N/A,,Overcast,50,2013-10-13 05:35:00
1:55 AM,60.8,51.8,72,30.29,10.0,NE,10.4,-,N/A,,Overcast,40,2013-10-13 05:55:00
2:15 AM,60.8,50.0,68,30.29,10.0,NE,8.1,-,N/A,,Overcast,50,2013-10-13 06:15:00
2:35 AM,60.8,50.0,68,30.29,10.0,NE,9.2,-,N/A,,Overcast,50,2013-10-13 06:35:00
2:55 AM,60.8,50.0,68,30.29,10.0,ENE,8.1,-,N/A,,Overcast,60,2013-10-13 06:55:00
3:15 AM,59.0,50.0,72,30.29,10.0,NE,8.1,-,N/A,,Overcast,50,2013-10-13 07:15:00
3:35 AM,59.0,50.0,72,30.29,10.0,ENE,8.1,16.1,N/A,,Overcast,60,2013-10-13 07:35:00
3:55 AM,59.0,50.0,72,30.30,10.0,NE,8.1,-,N/A,,Overcast,50,2013-10-13 07:55:00
4:15 AM,59.0,50.0,72,30.29,10.0,NE,8.1,-,N/A,,Overcast,40,2013-10-13 08:15:00
4:35 AM,57.2,48.2,72,30.30,10.0,NE,8.1,-,N/A,,Mostly Cloudy,40,2013-10-13 08:35:00
4:55 AM,57.2,48.2,72,30.30,10.0,NE,9.2,-,N/A,,Mostly Cloudy,40,2013-10-13 08:55:00
5:15 AM,57.2,48.2,72,30.31,10.0,NE,6.9,-,N/A,,Overcast,40,2013-10-13 09:15:00
5:35 AM,57.2,48.2,72,30.31,10.0,NE,9.2,-,N/A,,Overcast,50,2013-10-13 09:35:00
5:55 AM,57.2,48.2,72,30.32,10.0,NE,8.1,-,N/A,,Overcast,40,2013-10-13 09:55:00
6:15 AM,57.2,48.2,72,30.33,10.0,NE,8.1,-,N/A,,Overcast,40,2013-10-13 10:15:00
6:35 AM,57.2,48.2,72,30.34,10.0,NNE,6.9,-,N/A,,Overcast,30,2013-10-13 10:35:00
6:45 AM,55.4,48.2,77,30.35,10.0,NE,8.1,-,N/A,,Overcast,50,2013-10-13 10:45:00
7:45 AM,53.6,48.2,82,30.38,10.0,ENE,8.1,12.7,N/A,,Overcast,60,2013-10-13 11:45:00
8:45 AM,55.4,48.2,77,30.38,10.0,ENE,10.4,15.0,N/A,,Mostly Cloudy,70,2013-10-13 12:45:00
9:51 AM,57.2,50.0,77,30.40,15.0,ENE,9.2,16.1,N/A,,Overcast,70,2013-10-13 13:51:00
10:51 AM,59.0,50.0,72,30.41,15.0,ENE,11.5,-,N/A,,Mostly Cloudy,60,2013-10-13 14:51:00
11:45 AM,60.8,50.0,68,30.41,10.0,ENE,10.4,18.4,N/A,,Mostly Cloudy,70,2013-10-13 15:45:00
12:45 PM,60.8,50.0,68,30.40,10.0,ENE,10.4,16.1,N/A,,Overcast,60,2013-10-13 16:45:00
1:45 PM,64.4,50.0,59,30.38,15.0,East,15.0,20.7,N/A,,Mostly Cloudy,80,2013-10-13 17:45:00
2:45 PM,64.4,50.0,59,30.37,10.0,East,10.4,15.0,N/A,,Mostly Cloudy,80,2013-10-13 18:45:00
3:45 PM,62.6,50.0,63,30.35,10.0,East,8.1,-,N/A,,Mostly Cloudy,80,2013-10-13 19:45:00
4:45 PM,62.6,51.8,68,30.34,10.0,East,9.2,-,N/A,,Mostly Cloudy,80,2013-10-13 20:45:00
5:45 PM,60.8,50.0,68,30.34,10.0,East,6.9,-,N/A,,Scattered Clouds,90,2013-10-13 21:45:00
6:45 PM,55.4,50.0,82,30.26,7.0,NE,6.9,-,N/A,,Scattered Clouds,50,2013-10-13 22:45:00
7:45 PM,55.4,50.0,82,30.37,10.0,NE,4.6,-,N/A,,Overcast,50,2013-10-13 23:45:00
8:45 PM,51.8,48.2,88,30.38,10.0,East,3.5,-,N/A,,Clear,80,2013-10-14 00:45:00
9:45 PM,48.2,46.4,93,30.39,7.0,Calm,Calm,-,N/A,,Clear,0,2013-10-14 01:45:00
10:55 PM,50.0,46.4,87,30.39,10.0,Calm,Calm,-,N/A,,Overcast,0,2013-10-14 02:55:00
11:15 PM,51.8,50.0,94,30.39,10.0,Calm,Calm,-,N/A,,Overcast,0,2013-10-14 03:15:00
11:35 PM,50.0,48.2,94,30.38,10.0,Calm,Calm,-,N/A,,Overcast,0,2013-10-14 03:35:00
11:55 PM,50.0,48.2,94,30.38,10.0,Calm,Calm,-,N/A,,Overcast,0,2013-10-14 03:55:00